This is the latest recevied weather packets stored in our database for station/object KI8L. If no packets are shown the sender has not sent any weather packets the latest 1 day(s).
| Time | Temp. | Humidity | Pressure | Rain* | Wind** | Luminosity | Snow |
|---|---|---|---|---|---|---|---|
| 1777989106 | 17.78° C | 74% | 1009.4 hPa | 0 mm | 0.89 m/s, 224° | 346 W/m² | - |
| 1777988802 | 17.78° C | 77% | 1009.4 hPa | 0 mm | 2.24 m/s, 208° | 372 W/m² | - |
| 1777988500 | 17.78° C | 78% | 1009.5 hPa | 0 mm | 3.13 m/s, 209° | 335 W/m² | - |
| 1777988197 | 17.78° C | 80% | 1009.3 hPa | 0 mm | 3.58 m/s, 185° | 334 W/m² | - |
| 1777987893 | 17.22° C | 80% | 1009.5 hPa | 0 mm | 2.68 m/s, 167° | 361 W/m² | - |
| 1777987589 | 17.22° C | 81% | 1009.6 hPa | 0 mm | 5.36 m/s, 186° | 304 W/m² | - |
| 1777987287 | 16.67° C | 82% | 1009.6 hPa | 0 mm | 2.68 m/s, 211° | 184 W/m² | - |
| 1777986983 | 16.67° C | 83% | 1009.5 hPa | 0 mm | 2.68 m/s, 196° | 96 W/m² | - |
| 1777986681 | 16.67° C | 84% | 1009.2 hPa | 0 mm | 2.24 m/s, 191° | 70 W/m² | - |
| 1777986379 | 16.11° C | 84% | 1009.2 hPa | 0 mm | 3.13 m/s, 191° | 75 W/m² | - |
| 1777986078 | 16.11° C | 83% | 1009.1 hPa | 0 mm | 3.58 m/s, 186° | 97 W/m² | - |
| 1777985774 | 15.56° C | 84% | 1009.2 hPa | 0 mm | 3.13 m/s, 183° | 113 W/m² | - |
| 1777985471 | 15.56° C | 84% | 1009.2 hPa | 0 mm | 2.24 m/s, 207° | 92 W/m² | - |
| 1777985167 | 15.56° C | 86% | 1009.4 hPa | 0 mm | 2.24 m/s, 166° | 79 W/m² | - |
| 1777984863 | 15° C | 85% | 1009.3 hPa | 0 mm | 3.58 m/s, 199° | 87 W/m² | - |
| 1777984560 | 15° C | 86% | 1009.1 hPa | 0 mm | 2.24 m/s, 198° | 85 W/m² | - |
| 1777984256 | 15° C | 86% | 1008.8 hPa | 0 mm | 1.34 m/s, 182° | 67 W/m² | - |
| 1777983953 | 15° C | 86% | 1009.1 hPa | 0 mm | 1.34 m/s, 198° | 49 W/m² | - |
| 1777983650 | 15° C | 86% | 1009.2 hPa | 0 mm | 1.79 m/s, 185° | 40 W/m² | - |
| 1777983347 | 15° C | 85% | 1009.1 hPa | 0 mm | 2.68 m/s, 189° | 31 W/m² | - |
| 1777983043 | 15° C | 86% | 1008.9 hPa | 0 mm | 0.89 m/s, 197° | 35 W/m² | - |
| 1777982740 | 15° C | 86% | 1008.8 hPa | 0 mm | 2.24 m/s, 196° | 40 W/m² | - |
| 1777982435 | 15° C | 86% | 1008.5 hPa | 0 mm | 2.24 m/s, 207° | 44 W/m² | - |
| 1777982130 | 15° C | 87% | 1008.2 hPa | 0 mm | 1.79 m/s, 205° | 55 W/m² | - |
| 1777981828 | 15° C | 86% | 1008.2 hPa | 0 mm | 4.47 m/s, 166° | 48 W/m² | - |
* Rain latest hour (hover to see other rain measurements)
** Current wind speed in m/s (hover to see current wind gust speed)